Location: Unspecified
(18.1347°N, 0.0000°E)
Time: 03:33:34
(UTC+00:00)

Vanguard 1 Rocket - All Passes

Search period start: 04 April 2026 00:00
Search period end: 14 April 2026 00:00
Orbit: 654 x 4213 km, 34.3° (Epoch: 28 March)

Date Brightness Start Highest point End Pass type
(mag) Time Alt. Az. Time Alt. Az. Time Alt. Az.
4 Apr - 00:51:04 10° WSW 01:14:06 61° NNW 01:26:36 10° NE visible
4 Apr - 03:31:08 10° WNW 03:44:13 33° NNW 03:51:39 10° NE visible
4 Apr - 06:05:09 10° NW 06:12:45 35° NNE 06:17:33 10° E daylight
4 Apr - 08:33:10 10° WNW 08:38:04 41° SW 08:42:12 10° SE daylight
4 Apr - 18:39:28 10° S 18:52:39 17° SE 19:06:23 10° ESE visible
4 Apr - 21:01:30 10° SSW 21:26:05 52° SE 21:45:59 10° ENE visible
4 Apr - 23:32:40 10° WSW 23:58:37 80° NNW 00:14:04 10° ENE visible
5 Apr - 02:11:33 10° W 02:29:40 42° NNW 02:39:30 10° NE visible
5 Apr - 04:49:35 10° NW 04:59:20 31° N 05:05:08 10° ENE visible
5 Apr - 07:19:30 10° WNW 07:26:12 82° NNE 07:30:43 10° ESE daylight
5 Apr - 19:48:14 10° SSW 20:09:31 36° SE 20:29:46 10° E visible
5 Apr - 22:15:52 10° SW 22:42:29 80° SE 23:00:54 10° ENE visible
6 Apr - 00:51:41 10° W 01:14:32 55° NNW 01:27:12 10° NE visible
6 Apr - 03:31:58 10° WNW 03:45:15 33° N 03:52:45 10° ENE visible
6 Apr - 06:05:20 10° NW 06:13:42 46° NNE 06:18:43 10° E daylight
6 Apr - 08:34:13 10° W 08:38:31 25° SW 08:42:10 10° SSE daylight
6 Apr - 18:37:00 10° S 18:53:03 22° SE 19:10:12 10° E visible
6 Apr - 21:00:43 10° SW 21:25:56 61° SE 21:46:45 10° ENE visible
6 Apr - 23:32:50 10° WSW 23:58:46 71° NNW 00:14:34 10° NE visible
7 Apr - 02:12:32 10° WNW 02:30:31 40° NNW 02:40:23 10° NE visible
7 Apr - 04:49:53 10° NW 05:00:25 37° N 05:06:25 10° ENE visible
7 Apr - 07:19:57 10° WNW 07:26:47 66° SW 07:31:19 10° SE daylight
7 Apr - 17:32:37 10° SSE 17:36:33 11° SE 17:40:38 10° SE daylight
7 Apr - 19:47:09 10° SSW 20:09:22 44° SE 20:31:03 10° ENE visible
7 Apr - 22:15:39 10° SW 22:42:24 90° NW 23:01:23 10° ENE visible
8 Apr - 00:52:28 10° W 01:15:06 50° NNW 01:27:53 10° NE visible
8 Apr - 03:32:37 10° WNW 03:46:21 36° N 03:53:57 10° ENE visible
8 Apr - 06:05:30 10° NW 06:14:32 64° NNE 06:19:42 10° ESE daylight
8 Apr - 08:35:52 10° W 08:38:52 15° SW 08:41:31 10° S daylight
8 Apr - 18:35:18 10° S 18:53:06 28° SE 19:12:45 10° E visible
8 Apr - 21:00:12 10° SW 21:25:41 71° SE 21:47:19 10° ENE visible
8 Apr - 23:33:14 10° WSW 23:59:01 64° NNW 00:15:06 10° NE visible
9 Apr - 02:13:28 10° WNW 02:31:28 40° N 02:41:23 10° ENE visible
9 Apr - 04:50:05 10° NW 05:01:26 45° NNE 05:07:37 10° E visible
9 Apr - 07:20:34 10° WNW 07:27:13 43° SW 07:31:40 10° SSE daylight
9 Apr - 17:26:33 10° SSE 17:37:07 15° SE 17:49:04 10° ESE daylight
9 Apr - 19:46:21 10° SSW 20:09:04 52° SE 20:31:58 10° ENE visible
9 Apr - 22:15:41 10° WSW 22:42:22 81° NNW 23:01:48 10° ENE visible
10 Apr - 00:53:23 10° W 01:15:48 47° NNW 01:28:41 10° NE visible
10 Apr - 03:33:04 10° WNW 03:47:26 40° N 03:55:10 10° ENE visible
10 Apr - 06:05:43 10° WNW 06:15:12 88° NNE 06:20:30 10° ESE daylight
10 Apr - 18:34:04 10° SSW 18:52:54 35° SE 19:14:30 10° E visible
10 Apr - 20:59:55 10° SW 21:25:26 80° SE 21:47:46 10° ENE visible
10 Apr - 23:33:52 10° W 23:59:24 58° NNW 00:15:40 10° NE visible
11 Apr - 02:14:17 10° WNW 02:32:30 41° N 02:42:29 10° ENE visible
11 Apr - 04:50:11 10° NW 05:02:20 57° NNE 05:08:41 10° E visible
11 Apr - 07:21:27 10° WNW 07:27:30 28° SW 07:31:43 10° SSE daylight
11 Apr - 17:23:57 10° S 17:37:15 20° SE 17:53:16 10° E daylight
11 Apr - 19:45:48 10° SW 20:08:41 61° SE 20:32:35 10° ENE visible
11 Apr - 22:15:57 10° WSW 22:42:26 73° NNW 23:02:14 10° ENE visible
12 Apr - 00:54:21 10° W 01:16:39 46° NNW 01:29:34 10° ENE visible
12 Apr - 03:33:21 10° WNW 03:48:28 46° N 03:56:22 10° E visible
12 Apr - 06:06:01 10° WNW 06:15:42 67° SW 06:21:06 10° SE daylight
12 Apr - 18:33:11 10° SSW 18:52:32 43° SE 19:15:41 10° ENE visible
12 Apr - 20:59:52 10° SW 21:25:14 90° SE 21:48:07 10° ENE visible
12 Apr - 23:34:41 10° W 23:59:57 54° NNW 00:16:20 10° ENE visible
13 Apr - 02:14:55 10° WNW 02:33:35 43° N 02:43:39 10° ENE visible
13 Apr - 04:50:15 10° WNW 05:03:06 73° NNE 05:09:37 10° ESE visible
13 Apr - 07:22:48 10° W 07:27:39 19° SW 07:31:19 10° S daylight
13 Apr - 17:22:18 10° S 17:37:07 26° SE 17:55:56 10° E daylight
13 Apr - 19:45:29 10° SW 20:08:16 71° SE 20:33:01 10° ENE visible
13 Apr - 22:16:27 10° WSW 22:42:38 66° NNW 23:02:41 10° ENE visible
